DW4915 Mazarete ES current weather conditions

sailwx.info

Wind from 061

Air temperature 4.4° C
Dewpoint -2.9° C

Last reported at 2016-May-03 05:41 UTC.
Time now 2016-May-03 06:48 UTC

Location: N 40°58' W 002°11'.
View on Google Maps.

See reports from other nearby stations

  
Tides and Currents Weather Stations Pressure Air Temp Water Temp Dewpoint Dewpoint Depression Visibility Wind Speed Wind Dir Waves Ship Positions
date/time (UTC)wind fromknots sea level pressurealtimeterstation pressurevisibilityair tempwater tempwave heightnotes
2016-May-03 05:41 061 4.4
2016-May-03 05:31 063 5.6
2016-May-03 05:26 061 5.6
2016-May-03 05:21 062 6.1
2016-May-03 05:11 062 5.6
2016-May-03 05:06 061 5.6
2016-May-03 05:01 062 5.6
2016-May-03 04:56 062 5.6
2016-May-03 04:51 062 5.0
2016-May-03 04:46 062 5.0
2016-May-03 04:41 063 5.0
2016-May-03 04:36 062 5.0
2016-May-03 04:26 061 4.4
2016-May-03 04:21 062 3.9
2016-May-03 04:11 062 4.4
2016-May-03 04:06 062 5.0
2016-May-03 03:56 062 4.4
2016-May-03 03:51 062 3.9
2016-May-03 03:46 062 3.3
2016-May-03 03:36 062 2.8
2016-May-03 03:31 062 2.8
2016-May-03 03:26 063 3.3
2016-May-03 03:16 062 4.4
2016-May-03 03:11 062 5.0
2016-May-03 03:06 062 5.6
2016-May-03 03:01 063 6.1
2016-May-03 02:56 062 6.7
2016-May-03 02:46 062 7.8
2016-May-03 02:41 063 8.3
2016-May-03 02:36 062 8.3
2016-May-03 02:26 073 7.2
2016-May-03 02:21 074 7.2
2016-May-03 02:16 074 7.2
2016-May-03 02:06 074 7.8
2016-May-03 02:01 074 7.8
2016-May-03 01:51 073 7.8
2016-May-03 01:46 073 7.8
2016-May-03 01:41 073 7.8
2016-May-03 01:31 073 7.8
2016-May-03 01:26 074 7.8
2016-May-03 01:21 073 7.8
2016-May-03 01:11 073 7.8
2016-May-03 01:06 073 7.8
2016-May-03 01:01 073 7.8
2016-May-03 00:51 073 7.8
2016-May-03 00:46 073 7.8
2016-May-03 00:41 065 7.2
2016-May-03 00:31 067 6.7
2016-May-03 00:21 066 7.2
2016-May-03 00:16 066 7.8
2016-May-03 00:11 068 7.8
2016-May-03 00:01 067 7.8
2016-May-02 23:56 058 7.8
2016-May-02 23:51 059 7.8
2016-May-02 23:46 058 7.8
2016-May-02 23:41 059 7.8
2016-May-02 23:31 059 8.3
2016-May-02 23:26 064 8.3
2016-May-02 23:21 063 7.8
2016-May-02 23:16 019 7.8
2016-May-02 23:11 020 7.8
2016-May-02 23:06 019 7.8
2016-May-02 23:01 020 7.8
2016-May-02 22:51 019 7.8
2016-May-02 22:46 019 7.8
2016-May-02 22:41 019 7.2
2016-May-02 22:31 020 7.2
2016-May-02 22:26 019 7.2
2016-May-02 22:21 020 7.2
2016-May-02 22:11 019 7.2
2016-May-02 22:06 019 7.2
2016-May-02 21:56 021 7.8
2016-May-02 21:51 020 7.8
2016-May-02 21:46 019 7.8
2016-May-02 21:41 019 7.8
2016-May-02 21:31 019 7.8
2016-May-02 21:26 020 7.8
2016-May-02 21:21 019 7.8
2016-May-02 21:11 019 7.8
2016-May-02 21:06 019 7.2
2016-May-02 21:01 020 7.2
2016-May-02 20:56 020 7.2
2016-May-02 20:51 019 7.2
2016-May-02 20:46 019 7.2
2016-May-02 20:41 019 7.2
2016-May-02 20:36 020 7.2
2016-May-02 20:26 020 7.8
2016-May-02 20:21 020 7.8
2016-May-02 20:16 019 7.8
2016-May-02 20:11 019 8.3
2016-May-02 20:06 019 8.9
2016-May-02 19:56 020 8.9
2016-May-02 19:51 019 8.9
2016-May-02 19:46 019 9.4
2016-May-02 19:36 020 10.6
2016-May-02 19:31 020 10.6
2016-May-02 19:26 019 11.1
2016-May-02 19:16 019 12.2
2016-May-02 19:11 019 12.8
2016-May-02 19:06 019 13.3
2016-May-02 18:56 019 14.4
2016-May-02 18:51 019 15.0
2016-May-02 18:46 021 15.0
2016-May-02 18:41 019 15.6
2016-May-02 18:36 020 15.6
2016-May-02 18:31 019 16.1
2016-May-02 18:26 019 16.1
2016-May-02 18:16 001 16.1
2016-May-02 18:11 003 16.7
2016-May-02 18:06 014 16.7
2016-May-02 17:56 001 16.7
2016-May-02 17:51 004 16.7
2016-May-02 17:46 013 17.2
2016-May-02 17:41 358 17.2
2016-May-02 17:31 009 17.8
2016-May-02 17:26 359 17.8
2016-May-02 17:16 356 17.8
2016-May-02 17:11 021 17.8
2016-May-02 17:06 009 17.8
2016-May-02 16:56 350 17.8
2016-May-02 16:51 006 17.8
2016-May-02 16:46 352 17.8
2016-May-02 16:41 356 18.3
2016-May-02 16:31 019 18.3
2016-May-02 16:26 050 17.8
2016-May-02 16:21 347 17.8
2016-May-02 16:11 359 18.3
2016-May-02 16:06 013 18.3
2016-May-02 15:56 348 18.3
2016-May-02 15:51 357 18.3
2016-May-02 15:46 009 18.9
2016-May-02 15:36 010 18.3
2016-May-02 15:31 332 17.8
2016-May-02 15:26 333 17.8
2016-May-02 15:16 004 18.3
2016-May-02 15:11 006 17.8
2016-May-02 15:06 006 17.8
2016-May-02 14:56 352 17.8
2016-May-02 14:51 354 18.3
2016-May-02 14:46 046 18.3
2016-May-02 14:36 354 17.8
2016-May-02 14:31 014 17.8
2016-May-02 14:26 044 17.8
2016-May-02 14:21 016 17.8
2016-May-02 14:16 032 17.8
2016-May-02 14:06 056 17.2
2016-May-02 13:56 036 17.2
2016-May-02 13:51 019 17.2
2016-May-02 13:46 017 17.2
2016-May-02 13:41 052 17.2
2016-May-02 13:31 075 16.7
2016-May-02 13:26 058 16.7
2016-May-02 13:21 057 16.1
2016-May-02 13:16 010 16.1
2016-May-02 13:06 011 15.6
2016-May-02 13:01 359 15.6
2016-May-02 12:56 023 15.6
2016-May-02 12:51 054 15.6
2016-May-02 12:46 034 15.0
2016-May-02 12:41 033 15.0
2016-May-02 12:36 351 15.6
2016-May-02 12:31 352 15.0
2016-May-02 12:21 358 15.0
2016-May-02 12:16 017 14.4
2016-May-02 12:11 017 14.4
2016-May-02 12:01 044 14.4
2016-May-02 11:56 011 13.9
2016-May-02 11:51 015 13.9
2016-May-02 11:46 010 13.9
2016-May-02 11:36 020 13.3
2016-May-02 11:31 020 13.3
2016-May-02 11:21 020 13.3
2016-May-02 11:16 021 13.3
2016-May-02 11:11 020 12.8
2016-May-02 11:06 044 12.8
2016-May-02 11:01 047 12.2
2016-May-02 10:56 041 12.2
2016-May-02 10:51 040 12.2
2016-May-02 10:41 040 11.7
2016-May-02 10:36 040 11.7
2016-May-02 10:31 040 11.7
2016-May-02 10:21 050 11.7
2016-May-02 10:16 050 11.7
2016-May-02 10:11 042 11.1
2016-May-02 10:01 035 10.6
2016-May-02 09:56 035 10.6
2016-May-02 09:51 036 10.6
2016-May-02 09:41 021 10.0
2016-May-02 09:36 015 10.0
2016-May-02 09:31 014 9.4
2016-May-02 09:26 012 9.4
2016-May-02 09:16 033 9.4
2016-May-02 09:11 033 8.9
2016-May-02 09:06 033 8.9
2016-May-02 08:56 056 8.9
2016-May-02 08:46 013 7.8
2016-May-02 08:41 019 7.8
2016-May-02 08:36 017 7.8
2016-May-02 08:31 007 7.8
2016-May-02 08:26 013 7.2
2016-May-02 08:16 013 7.2
2016-May-02 08:11 001 6.7
2016-May-02 08:06 002 6.7
2016-May-02 07:56 050 6.1
2016-May-02 07:51 050 6.1
2016-May-02 07:46 067 6.1
2016-May-02 07:41 033 5.6
2016-May-02 07:31 034 5.6
2016-May-02 07:26 027 5.0
2016-May-02 07:16 056 4.4
2016-May-02 07:11 004 4.4
2016-May-02 07:01 019 3.9
2016-May-02 06:56 036 3.9
2016-May-02 06:51 033 3.9
2016-May-02 06:46 054 3.3
2016-May-02 06:36 037 2.8
2016-May-02 06:31 042 2.8
2016-May-02 06:21 040 2.2
2016-May-02 06:16 023 1.7
2016-May-02 06:11 050 1.7
2016-May-02 06:01 053 0.6
2016-May-02 05:56 054 0.6
2016-May-02 05:51 054 -0.0
2016-May-02 05:46 054 -0.6
2016-May-02 05:41 054 -0.6
2016-May-02 05:31 054 -0.6
2016-May-02 05:26 054 -0.6
2016-May-02 05:21 054 -1.1
2016-May-02 05:16 054 -1.1
2016-May-02 05:11 054 -1.1
2016-May-02 05:01 055 -1.7
2016-May-02 04:56 054 -1.7
2016-May-02 04:51 054 -1.7
2016-May-02 04:46 054 -1.7
2016-May-02 04:41 055 -1.7
2016-May-02 04:31 055 -1.1
2016-May-02 04:26 054 -1.1
2016-May-02 04:21 055 -1.1
2016-May-02 04:16 055 -1.1
2016-May-02 04:06 054 -0.6
2016-May-02 04:01 055 -0.6
2016-May-02 03:56 054 -0.6
2016-May-02 03:51 054 -0.6
2016-May-02 03:41 055 -0.6
2016-May-02 03:36 060 -0.6
2016-May-02 03:31 059 -0.6
2016-May-02 03:21 060 -0.6
2016-May-02 03:16 061 -0.6
2016-May-02 03:11 059 -0.6
2016-May-02 03:06 060 -0.6
2016-May-02 02:56 029 -0.6
2016-May-02 02:51 030 -0.6
2016-May-02 02:46 029 -1.1
2016-May-02 02:36 030 -1.1
2016-May-02 02:31 029 -1.1
2016-May-02 02:26 030 -0.6
2016-May-02 02:16 029 -0.6
2016-May-02 02:11 029 -0.6
2016-May-02 02:06 029 -0.6
2016-May-02 02:01 030 -0.6
2016-May-02 01:56 029 -0.6
2016-May-02 01:46 035 -1.1
2016-May-02 01:41 034 -1.1
2016-May-02 01:36 034 -1.7
2016-May-02 01:26 034 -1.1
2016-May-02 01:21 034 -1.1
2016-May-02 01:16 035 -1.1
2016-May-02 01:11 034 -0.6
2016-May-02 01:01 034 -0.0
2016-May-02 00:56 034 -0.0
2016-May-02 00:51 034 0.6
2016-May-02 00:46 034 0.6
2016-May-02 00:41 034 0.6
2016-May-02 00:36 034 0.6
2016-May-02 00:31 034 0.6
2016-May-02 00:21 035 1.1
2016-May-02 00:16 008 1.1
2016-May-02 00:11 012 1.1
2016-May-02 00:01 089 1.1
2016-May-01 23:56 340 1.1
2016-May-01 23:51 356 1.1
2016-May-01 23:46 346 1.7
2016-May-01 23:41 346 1.7
2016-May-01 23:36 348 1.7
2016-May-01 23:31 358 1.7
2016-May-01 23:26 356 1.7
2016-May-01 23:21 357 1.7
2016-May-01 23:16 015 1.7
2016-May-01 23:11 013 1.7
2016-May-01 23:06 025 1.7
2016-May-01 23:01 023 2.2
2016-May-01 22:51 360 2.2
2016-May-01 22:46 037 2.2
2016-May-01 22:41 021 2.2
2016-May-01 22:36 359 2.2
2016-May-01 22:26 016 2.2
2016-May-01 22:21 031 2.2
2016-May-01 22:16 035 2.2
2016-May-01 22:11 029 2.2
2016-May-01 22:06 038 2.2
2016-May-01 22:01 034 2.8
2016-May-01 21:56 023 2.8
2016-May-01 21:46 013 2.8
2016-May-01 21:41 355 2.8
2016-May-01 21:31 070 2.8
2016-May-01 21:26 034 3.3
2016-May-01 21:21 360 3.3
2016-May-01 21:16 003 3.3
2016-May-01 21:11 009 3.3
2016-May-01 21:01 353 3.3
2016-May-01 20:56 358 3.3
2016-May-01 20:51 032 3.3
2016-May-01 20:41 022 3.9
2016-May-01 20:36 039 3.9
2016-May-01 20:31 036 3.9
2016-May-01 20:26 009 3.9
2016-May-01 20:21 004 3.9
2016-May-01 20:11 010 3.9
2016-May-01 20:06 009 4.4
2016-May-01 20:01 010 4.4
2016-May-01 19:56 052 4.4
2016-May-01 19:51 069 5.0
2016-May-01 19:46 014 5.0
2016-May-01 19:36 018 5.0
2016-May-01 19:31 012 5.0
2016-May-01 19:21 056 5.6
2016-May-01 19:16 013 5.6
2016-May-01 19:11 020 6.1
2016-May-01 19:01 062 6.1
2016-May-01 18:56 015 6.7
2016-May-01 18:51 026 6.7
2016-May-01 18:41 002 7.2
2016-May-01 18:36 358 7.2
2016-May-01 18:26 009 7.2
2016-May-01 18:21 353 7.8
2016-May-01 18:16 357 7.8
2016-May-01 18:06 360 7.8
2016-May-01 18:01 006 7.8
2016-May-01 17:56 354 8.3
2016-May-01 17:46 002 8.9
2016-May-01 17:41 358 8.9
2016-May-01 17:36 033 8.9
2016-May-01 17:31 350 8.9
2016-May-01 17:26 346 8.9
2016-May-01 17:21 030 8.9
2016-May-01 17:11 356 9.4
2016-May-01 17:06 333 9.4
2016-May-01 17:01 356 9.4
2016-May-01 16:56 029 9.4
2016-May-01 16:46 002 9.4
2016-May-01 16:41 358 10.0
2016-May-01 16:36 358 9.4
2016-May-01 16:26 347 10.0
2016-May-01 16:21 004 10.0
2016-May-01 16:16 007 10.0
2016-May-01 16:11 356 10.0
2016-May-01 16:01 357 9.4
2016-May-01 15:56 354 10.0
2016-May-01 15:51 346 10.0
2016-May-01 15:46 340 10.6
2016-May-01 15:41 002 10.0
2016-May-01 15:36 355 10.0
2016-May-01 15:31 015 9.4
2016-May-01 15:26 337 10.0
2016-May-01 15:21 358 10.0
2016-May-01 15:11 343 9.4
2016-May-01 15:06 358 9.4
2016-May-01 14:56 355 9.4
2016-May-01 14:51 345 9.4
2016-May-01 14:46 352 9.4
2016-May-01 14:41 025 9.4
2016-May-01 14:31 360 9.4
2016-May-01 14:26 002 9.4
2016-May-01 14:21 001 9.4
2016-May-01 14:16 328 9.4
2016-May-01 14:11 001 9.4
2016-May-01 14:06 360 9.4
2016-May-01 14:01 348 9.4
2016-May-01 13:56 019 8.9
2016-May-01 13:51 075 8.9
2016-May-01 13:46 360 8.9
2016-May-01 13:41 004 8.9
2016-May-01 13:36 351 8.9
2016-May-01 13:31 012 8.9
2016-May-01 13:26 347 8.9
2016-May-01 13:21 358 9.4
2016-May-01 13:11 001 8.9
2016-May-01 13:06 358 8.9
2016-May-01 13:01 011 8.9
2016-May-01 12:56 002 8.9
2016-May-01 12:46 359 8.9
2016-May-01 12:41 046 8.9
2016-May-01 12:31 038 8.3
2016-May-01 12:26 360 8.3
2016-May-01 12:21 005 8.3
2016-May-01 12:16 348 8.3
2016-May-01 12:06 066 8.3
2016-May-01 12:01 033 8.3
2016-May-01 11:56 041 7.8
2016-May-01 11:51 348 7.8
2016-May-01 11:41 011 7.8
2016-May-01 11:36 005 7.8
2016-May-01 11:31 022 7.8
2016-May-01 11:26 037 7.2
2016-May-01 11:21 038 7.2
2016-May-01 11:16 350 7.2
2016-May-01 11:06 042 7.2
2016-May-01 11:01 019 7.2
2016-May-01 10:56 006 7.2
2016-May-01 10:51 008 7.2
2016-May-01 10:41 040 7.2
2016-May-01 10:36 019 6.7
2016-May-01 10:31 036 6.7
2016-May-01 10:21 005 6.7
2016-May-01 10:16 032 6.1
2016-May-01 10:11 355 6.1
2016-May-01 10:06 058 6.1
2016-May-01 10:01 004 6.1
2016-May-01 09:56 004 6.1
2016-May-01 09:51 344 6.1
2016-May-01 09:46 046 6.1
2016-May-01 09:41 059 5.6
2016-May-01 09:36 348 5.6
2016-May-01 09:31 014 5.6
2016-May-01 09:21 016 5.6
2016-May-01 09:16 033 5.0
2016-May-01 09:06 058 5.0
2016-May-01 09:01 003 4.4
2016-May-01 08:56 023 4.4
2016-May-01 08:46 010 3.9
2016-May-01 08:41 354 4.4
2016-May-01 08:36 360 3.9
2016-May-01 08:31 013 3.9
2016-May-01 08:21 065 3.3
2016-May-01 08:16 027 3.3
2016-May-01 08:11 358 3.3
2016-May-01 08:06 001 3.3
2016-May-01 07:56 005 3.3
2016-May-01 07:51 017 3.3
2016-May-01 07:46 007 2.8
2016-May-01 07:41 029 2.8
2016-May-01 07:31 002 2.2
2016-May-01 07:26 358 2.2
2016-May-01 07:21 354 2.2
2016-May-01 07:16 346 2.2
2016-May-01 07:11 003 1.7
2016-May-01 07:06 359 1.7
2016-May-01 06:56 004 1.7
2016-May-01 06:51 352 1.7
2016-May-01 06:46 360 1.7
2016-May-01 06:36 002 1.1
2016-May-01 06:31 012 1.1
2016-May-01 06:21 352 0.6
2016-May-01 06:16 352 0.6
2016-May-01 06:11 003 0.6
2016-May-01 06:06 018 0.6
2016-May-01 06:01 013 0.6